New Braunfels, TX

6:37 AM CST on November 20, 2019 (GMT -0600)
New Braunfels Municipal

Weather History for KBAZ - October, 2019

Change the Weather History Date:

Monday, October 21, 2019

  Actual Average (WUND) Record (WUND)
Temperature  
Mean Temperature 72 °F -  
Max Temperature 82 °F - - (-1)
Min Temperature 60 °F - - (-1)
Cooling Degree Days 7    
Growing Degree Days 22 (Base 50)    
Moisture  
Dew Point 52 °F    
Average Humidity 55    
Maximum Humidity 87    
Minimum Humidity 17    
Precipitation  
Precipitation 0.21 in - - ()
Sea Level Pressure  
Sea Level Pressure 29.82 in    
Wind  
Wind Speed 15 mph (NNE)    
Max Wind Speed 31 mph    
Max Gust Speed 44 mph    
Visibility 9 miles    
Events Rain , Thunderstorm    
Averages and records for this station are not official NWS values.
T = Trace of Precipitation, MM = Missing Value Source: NWS Daily Summary

Daily Weather History Graph

Daily Weather History Graph

Search for Another Location

Airport or City:

Astronomy

Oct. 21, 2019 Rise Set
Actual Time 7:37 AM CDT 6:55 PM CDT
Civil Twilight 7:13 AM CDT 7:19 PM CDT
Nautical Twilight 6:45 AM CDT 7:47 PM CDT
Astronomical Twilight 6:17 AM CDT 8:15 PM CDT
Moon 12:23 AM CDT (10/21) 2:41 PM CDT (10/21)
Length of Visible Light 12h 06m
Length of Day
11h 17m
Waning Gibbous, 48% of the Moon is Illuminated
Oct 21
Waning Gibbous
Oct 27
New
Nov 4
First Quarter
Nov 12
Full
Nov 19
Last Quarter

Hourly Weather History & Observations

Time (CDT) Temp. Heat Index Dew Point Humidity Pressure Visibility Wind Dir Wind Speed Gust Speed Precip Events Conditions
12:51 AM 80.1 °F 84.5 °F 73.9 °F 81% 29.69 in 10.0 mi South 16.1 mph - N/A   Mostly Cloudy
1:51 AM 80.1 °F 84.5 °F 73.9 °F 81% 29.69 in 10.0 mi SSW 10.4 mph - N/A   Overcast
2:18 AM 80.1 °F 84.5 °F 73.9 °F 81% 29.73 in 10.0 mi SW 10.4 mph - N/A   Overcast
2:28 AM 80.1 °F 84.5 °F 73.9 °F 81% 29.73 in 10.0 mi SW 10.4 mph - N/A   Overcast
2:51 AM 80.1 °F 84.5 °F 73.9 °F 81% 29.68 in 10.0 mi South 11.5 mph - 0.00 in Rain Light Rain
3:49 AM 73.4 °F - 60.8 °F 65% 29.77 in 10.0 mi NW 31.1 mph 43.7 mph 0.00 in   Mostly Cloudy
3:51 AM 73.0 °F - 60.1 °F 64% 29.75 in 10.0 mi NW 24.2 mph 43.7 mph 0.00 in   Mostly Cloudy
3:57 AM 72.0 °F - 60.1 °F 66% 29.77 in 10.0 mi NW 23.0 mph 42.6 mph N/A   Mostly Cloudy
4:12 AM 66.9 °F - 61.0 °F 81% 29.76 in 7.0 mi NNW 25.3 mph 32.2 mph 0.01 in Rain , Thunderstorm Light Rain
4:18 AM 66.0 °F - 62.1 °F 87% 29.77 in 1.8 mi North 20.7 mph 31.1 mph 0.17 in Rain , Thunderstorm Heavy Thunderstorms and Rain
4:27 AM 66.0 °F - 62.1 °F 87% 29.76 in 3.0 mi NNW 17.3 mph - 0.19 in Rain , Thunderstorm Light Thunderstorms and Rain
4:51 AM 66.9 °F - 62.1 °F 84% 29.73 in 8.0 mi WNW 11.5 mph - 0.20 in Rain Light Rain
5:51 AM 66.9 °F - 62.1 °F 84% 29.73 in 10.0 mi NW 6.9 mph - 0.01 in   Mostly Cloudy
6:51 AM 66.9 °F - 60.1 °F 79% 29.76 in 10.0 mi North 5.8 mph - N/A   Mostly Cloudy
7:51 AM 66.0 °F - 60.1 °F 81% 29.79 in 10.0 mi North 15.0 mph - N/A   Partly Cloudy
8:51 AM 68.0 °F - 55.0 °F 63% 29.83 in 10.0 mi North 17.3 mph - N/A   Scattered Clouds
9:51 AM 71.1 °F - 44.1 °F 38% 29.86 in 10.0 mi NNE 23.0 mph 29.9 mph N/A   Clear
10:51 AM 73.9 °F - 39.9 °F 29% 29.89 in 10.0 mi NNE 21.9 mph 27.6 mph N/A   Clear
11:51 AM 75.0 °F - 39.0 °F 27% 29.90 in 10.0 mi NNE 18.4 mph 26.5 mph N/A   Clear
12:51 PM 79.0 °F - 39.0 °F 24% 29.88 in 10.0 mi NE 15.0 mph 23.0 mph N/A   Clear
1:51 PM 80.1 °F - 34.0 °F 19% 29.87 in 10.0 mi NNE 13.8 mph 19.6 mph N/A   Clear
2:51 PM 81.0 °F - 33.1 °F 18% 29.85 in 10.0 mi ENE 12.7 mph - N/A   Clear
3:51 PM 82.0 °F - 34.0 °F 18% 29.85 in 10.0 mi NE 12.7 mph 17.3 mph N/A   Clear
4:51 PM 82.0 °F - 33.1 °F 17% 29.85 in 10.0 mi ENE 11.5 mph - N/A   Clear
5:51 PM 80.1 °F - 35.1 °F 20% 29.85 in 10.0 mi ENE 5.8 mph - N/A   Clear
6:51 PM 72.0 °F - 37.9 °F 29% 29.89 in 10.0 mi NE 6.9 mph - N/A   Clear
7:51 PM 66.9 °F - 39.9 °F 37% 29.93 in 10.0 mi ENE 6.9 mph - N/A   Clear
8:51 PM 64.0 °F - 41.0 °F 43% 29.96 in 10.0 mi ENE 6.9 mph - N/A   Clear
9:51 PM 64.0 °F - 39.9 °F 41% 29.99 in 10.0 mi NE 9.2 mph - N/A   Clear
10:51 PM 62.1 °F - 41.0 °F 46% 30.01 in 10.0 mi NE 8.1 mph - N/A   Clear
11:51 PM 60.1 °F - 41.0 °F 49% 30.03 in 10.0 mi NNE 9.2 mph - N/A   Clear